Location: New Town
(33.2710°N, 90.7534°W)
Time: 04:01:37
(UTC+00:00)

ISS - Pass Details

Date: 28 April 2021
Orbit: 417 x 422 km, 51.6° (Epoch: 18 May)

Event Time Altitude Azimuth Distance (km) Brightness Sun altitude
Exits shadow 08:27:13 11° 66° (ENE) 1,421 -0.4 -31.0°
Drops below altitude 10° 08:27:28 10° 64° (ENE) 1,514 -0.2 -30.9°
Sets 08:29:38 0° 55° (NE) 2,367 1.2 -30.6°
